Weather reports worldwide

Advertisment
Köln-Bonn, Germany (10513): temperature & dewpoint: 19.08.2019 08:00:00 - 25.08.2019 08:00:00 (CEST)Köln-Bonn, Germany (10513): temperature 5cm & temperature -5cm: 19.08.2019 08:00:00 - 25.08.2019 08:00:00 (CEST)Köln-Bonn, Germany (10513): temperature -20cm & temperature -100cm: 19.08.2019 08:00:00 - 25.08.2019 08:00:00 (CEST)Köln-Bonn, Germany (10513): wind speed & gusts: 19.08.2019 08:00:00 - 25.08.2019 08:00:00 (CEST)Köln-Bonn, Germany (10513): wind direction: 19.08.2019 08:00:00 - 25.08.2019 08:00:00 (CEST)Köln-Bonn, Germany (10513): reduced air pressure: 19.08.2019 08:00:00 - 25.08.2019 08:00:00 (CEST)Köln-Bonn, Germany (10513): visibility: 19.08.2019 08:00:00 - 25.08.2019 08:00:00 (CEST)Köln-Bonn, Germany (10513): sunshine duration: 19.08.2019 08:00:00 - 25.08.2019 08:00:00 (CEST)Köln-Bonn, Germany (10513): precipitation: 19.08.2019 08:00:00 - 25.08.2019 08:00:00 (CEST)
Date & Time tt [°C] td [°C] tt 5cm [°C] tt -5cm [°C] tt -20cm [°C] tt -100cm [°C] ff [km/h] ff [kn] fx [km/h] fx [kn] dd ppp [hPa] vv [km] sd [min] rr [mm]
25.08.2019 08:00:00 - - - - - - - - - - - - - - -
25.08.2019 07:00:00 13,8 12,3 12,3 17,8 21,0 19,4 2 1 8 4 - 1019,2 10 0 0,0
25.08.2019 06:00:00 14,1 12,0 12,2 18,2 21,3 19,4 6 4 9 5 SE 1018,9 30 0 0,0
25.08.2019 05:00:00 14,9 12,4 13,1 18,7 21,6 19,3 8 4 11 6 ESE 1018,9 35 0 0,0
25.08.2019 04:00:00 16,2 12,4 14,3 19,2 22,0 19,3 5 3 9 5 ESE 1019,0 10 0 0,0
25.08.2019 03:00:00 15,6 12,6 13,7 19,7 22,3 19,3 8 4 9 5 ESE 1018,9 40 0 0,0
25.08.2019 02:00:00 16,7 12,6 14,4 20,3 22,7 19,3 4 2 8 4 ENE 1019,1 10 0 0,0
25.08.2019 01:00:00 17,4 12,6 14,4 21,1 23,1 19,3 2 1 11 6 - 1019,2 10 0 0,0
25.08.2019 00:00:00 18,7 12,4 15,7 21,9 23,5 19,3 5 3 14 8 ENE 1018,9 10 0 0,0
24.08.2019 23:00:00 20,1 13,2 16,7 22,8 23,9 19,3 2 1 13 7 - 1019,0 10 0 0,0
24.08.2019 22:00:00 21,8 13,0 17,8 24,0 24,3 19,3 8 4 11 6 E 1018,9 60 0 0,0
24.08.2019 21:00:00 24,7 11,8 20,6 25,6 24,5 19,3 8 4 15 8 SE 1018,6 10 20 0,0
24.08.2019 20:00:00 27,3 11,1 25,4 27,6 24,5 19,3 9 5 13 7 SE 1018,2 60 60 0,0
24.08.2019 19:00:00 29,7 9,0 29,8 29,2 24,4 19,3 9 5 22 12 E 1018,1 60 60 0,0
24.08.2019 18:00:00 30,1 8,6 32,2 30,4 24,0 19,3 11 6 21 11 ENE 1018,4 10 60 0,0
24.08.2019 17:00:00 29,8 9,7 33,1 31,0 23,4 19,3 13 7 22 12 NE 1018,8 10 60 0,0
24.08.2019 16:00:00 29,8 9,5 35,0 31,0 22,8 19,3 13 7 21 11 ENE 1019,2 50 60 0,0
24.08.2019 15:00:00 29,3 10,9 34,5 30,4 22,0 19,3 11 6 22 12 E 1019,7 10 60 0,0
24.08.2019 14:00:00 28,1 10,9 32,6 29,4 21,2 19,3 8 4 21 11 - 1020,3 10 60 0,0
24.08.2019 13:00:00 27,1 12,5 33,1 27,6 20,4 19,2 5 3 13 7 - 1020,8 10 60 0,0
24.08.2019 12:00:00 26,0 12,6 30,4 25,1 19,8 19,2 5 3 15 8 SE 1021,5 40 60 0,0
24.08.2019 11:00:00 23,6 12,4 27,0 22,4 19,4 19,2 8 4 15 8 SE 1022,1 10 60 0,0
24.08.2019 10:00:00 20,7 11,4 23,7 19,7 19,2 19,2 5 3 9 5 SE 1022,3 10 60 0,0
24.08.2019 09:00:00 17,0 12,6 18,8 17,3 19,3 19,2 4 2 8 4 SE 1022,4 35 60 0,0
24.08.2019 08:00:00 12,6 10,5 13,1 16,0 19,6 19,2 7 4 11 6 SE 1022,4 30 40 0,0
24.08.2019 07:00:00 13,0 10,1 10,4 16,0 20,0 19,1 8 4 9 5 ESE 1022,3 30 0 0,0
24.08.2019 06:00:00 11,5 10,4 9,3 16,4 20,3 19,1 2 1 11 6 - 1022,2 10 0 0,0
24.08.2019 05:00:00 13,9 10,8 11,4 17,0 20,7 19,1 5 3 11 6 ESE 1022,3 10 0 0,0
24.08.2019 04:00:00 12,8 11,2 11,2 17,6 21,1 19,1 7 4 11 6 ESE 1022,4 30 0 0,0
24.08.2019 03:00:00 13,9 11,3 11,8 18,3 21,6 19,1 4 2 8 4 - 1022,6 10 0 0,0
24.08.2019 02:00:00 15,6 11,6 12,9 19,0 22,0 19,1 5 3 9 5 SE 1022,6 10 0 0,0
24.08.2019 01:00:00 16,4 11,8 12,3 19,9 22,5 19,1 2 1 11 6 - 1022,6 10 0 0,0
24.08.2019 00:00:00 17,3 12,0 14,0 20,9 22,9 19,1 2 1 13 7 - 1022,6 10 0 0,0
23.08.2019 23:00:00 18,0 12,9 14,5 22,0 23,3 19,1 4 2 11 6 - 1022,6 10 0 0,0
23.08.2019 22:00:00 20,5 12,6 16,9 23,3 23,7 19,1 8 4 16 9 ESE 1022,8 10 0 0,0
23.08.2019 21:00:00 22,3 12,6 18,6 25,0 23,9 19,1 9 5 15 8 NE 1022,6 10 9 0,0
23.08.2019 20:00:00 25,1 14,4 23,0 27,1 23,9 19,1 4 2 5 3 NNE 1022,2 10 58 0,0
23.08.2019 19:00:00 28,0 10,9 28,7 28,6 23,7 19,1 5 3 15 8 E 1022,2 55 60 0,0
23.08.2019 18:00:00 28,3 10,0 30,4 29,7 23,3 19,1 5 3 18 10 ENE 1022,7 10 60 0,0
23.08.2019 17:00:00 28,2 8,8 32,1 30,4 22,7 19,1 8 4 21 11 - 1023,2 10 60 0,0
23.08.2019 16:00:00 27,8 8,3 32,4 30,3 22,0 19,1 8 4 16 9 NE 1023,6 60 60 0,0
23.08.2019 15:00:00 27,1 8,7 32,8 29,8 21,2 19,0 9 5 21 11 - 1024,2 10 60 0,0
23.08.2019 14:00:00 26,9 9,7 32,5 28,6 20,4 19,0 8 4 18 10 - 1024,6 10 60 0,0
23.08.2019 13:00:00 25,7 11,5 31,2 26,7 19,6 19,0 5 3 9 5 ENE 1025,3 35 60 0,0
23.08.2019 12:00:00 23,2 11,8 30,2 24,3 19,0 19,0 3 2 11 6 SSE 1025,9 30 60 0,0
23.08.2019 11:00:00 21,2 12,9 25,3 21,5 18,5 19,0 5 3 9 5 SE 1026,3 10 60 0,0
23.08.2019 10:00:00 17,9 11,5 21,3 18,8 18,4 19,0 4 2 10 5 ESE 1026,6 30 60 0,0
23.08.2019 09:00:00 15,7 11,8 17,3 16,6 18,5 19,0 6 3 9 5 ESE 1026,7 30 60 0,0
23.08.2019 08:00:00 11,1 9,7 11,3 15,1 18,7 19,0 10 5 13 7 ESE 1026,6 30 41 0,0
23.08.2019 07:00:00 9,6 9,0 8,4 15,0 19,1 18,9 2 1 11 6 - 1026,6 10 0 0,0
23.08.2019 06:00:00 9,9 9,0 8,2 15,5 19,5 18,9 4 2 9 5 - 1026,5 10 0 0,0
23.08.2019 05:00:00 10,3 9,5 9,0 16,0 19,8 18,9 5 3 9 5 ESE 1026,3 35 0 0,0
23.08.2019 04:00:00 11,6 10,0 9,7 16,6 20,2 18,9 5 3 9 5 E 1026,3 40 0 0,0
23.08.2019 03:00:00 11,7 10,5 9,1 17,3 20,7 18,9 4 2 11 6 - 1026,1 10 0 0,0
23.08.2019 02:00:00 12,8 10,8 10,8 18,0 21,1 18,9 2 1 9 5 ENE 1026,1 10 0 0,0
23.08.2019 01:00:00 12,5 10,2 11,0 18,8 21,5 18,9 8 4 13 7 E 1026,2 10 0 0,0
23.08.2019 00:00:00 14,9 11,7 13,4 19,7 21,9 18,9 4 2 11 6 - 1025,9 10 0 0,0
22.08.2019 23:00:00 15,8 11,8 13,0 20,8 22,4 18,9 2 1 11 6 - 1025,6 10 0 0,0
22.08.2019 22:00:00 18,1 11,7 15,3 22,1 22,7 18,9 8 4 9 5 NNE 1025,3 10 0 0,0
22.08.2019 21:00:00 19,7 11,3 16,5 23,9 22,9 18,9 4 2 11 6 - 1024,5 10 19 0,0
22.08.2019 20:00:00 24,3 10,4 23,0 25,8 22,9 18,9 5 3 11 6 ENE 1024,2 10 60 0,0
22.08.2019 19:00:00 25,6 8,7 26,2 27,5 22,7 18,9 8 4 12 6 E 1023,9 10 60 0,0
22.08.2019 18:00:00 26,3 9,5 29,0 28,6 22,3 18,9 8 4 15 8 NW 1024,1 60 60 0,0
22.08.2019 17:00:00 25,7 7,8 31,2 29,1 21,7 18,9 8 4 18 10 - 1024,3 10 60 0,0
22.08.2019 16:00:00 26,0 8,1 31,0 28,9 21,0 18,9 8 4 16 9 - 1024,6 10 60 0,0
22.08.2019 15:00:00 25,6 8,4 30,6 28,0 20,2 18,9 8 4 23 12 ESE 1025,0 10 60 0,0
22.08.2019 14:00:00 25,1 8,8 30,2 26,7 19,5 18,9 10 6 27 15 SSW 1025,5 60 60 0,0
22.08.2019 13:00:00 24,2 9,4 29,1 25,1 18,7 18,9 15 8 27 14 SSW 1025,7 10 60 0,0
22.08.2019 12:00:00 23,0 9,5 27,5 22,8 18,1 18,9 9 5 18 10 SE 1026,3 10 60 0,0
22.08.2019 11:00:00 21,1 9,4 24,2 20,1 17,8 18,9 13 7 16 9 SE 1026,7 10 60 0,0
22.08.2019 10:00:00 18,5 9,8 20,7 17,8 17,6 18,9 15 8 18 10 SE 1026,9 10 60 0,0
22.08.2019 09:00:00 15,9 9,6 17,5 15,7 17,7 18,9 8 4 11 6 ESE 1026,7 35 60 0,0
22.08.2019 08:00:00 11,2 9,2 12,0 14,3 17,9 18,8 5 3 11 6 SE 1026,8 10 43 0,0
22.08.2019 07:00:00 8,3 7,1 7,2 14,1 18,3 18,8 2 1 11 6 - 1026,6 10 0 0,0
22.08.2019 06:00:00 9,3 8,2 7,4 14,7 18,6 18,8 8 4 8 4 SE 1026,6 10 0 0,0
22.08.2019 05:00:00 11,0 7,5 8,7 15,2 19,0 18,8 8 4 11 6 ENE 1026,5 10 0 0,0
22.08.2019 04:00:00 13,6 8,4 11,6 15,6 19,3 18,8 5 3 9 5 E 1026,4 10 0 0,0
22.08.2019 03:00:00 14,1 8,6 11,9 16,1 19,7 18,8 2 1 11 6 - 1026,7 10 0 0,0
22.08.2019 02:00:00 11,4 9,0 9,6 16,8 20,2 18,8 9 5 9 5 ESE 1026,9 60 0 0,0
22.08.2019 01:00:00 11,6 8,7 9,3 17,5 20,6 18,8 7 4 9 5 SSE 1027,0 60 0 0,0
22.08.2019 00:00:00 14,8 9,0 11,2 18,5 21,0 18,8 4 2 13 7 - 1026,9 10 0 0,0
21.08.2019 23:00:00 15,9 8,8 12,3 19,5 21,4 18,8 4 2 13 7 - 1026,8 10 0 0,0
21.08.2019 22:00:00 16,4 9,8 13,0 20,8 21,8 18,8 5 3 9 5 E 1026,9 60 0 0,0
21.08.2019 21:00:00 17,5 11,2 14,6 22,5 22,0 18,8 8 4 11 6 ENE 1026,7 10 14 0,0
21.08.2019 20:00:00 20,7 10,7 19,6 24,2 22,0 18,8 8 4 13 7 E 1026,4 10 32 0,0
21.08.2019 19:00:00 21,9 9,3 22,0 25,5 21,9 18,8 5 3 14 7 E 1026,4 10 3 0,0
21.08.2019 18:00:00 22,5 7,7 24,2 26,8 21,6 18,8 9 5 36 20 ENE 1026,7 55 59 0,0
21.08.2019 17:00:00 22,6 7,1 25,7 27,8 21,1 18,8 5 3 17 9 NNE 1027,0 50 60 0,0
21.08.2019 16:00:00 22,9 7,1 28,8 27,9 20,4 18,9 6 3 22 12 SSW 1027,2 50 58 0,0
21.08.2019 15:00:00 22,1 7,5 28,7 27,3 19,6 18,9 11 6 26 14 S 1027,6 50 60 0,0
21.08.2019 14:00:00 22,4 8,0 28,4 25,5 19,0 18,9 8 4 20 11 - 1028,0 10 47 0,0
21.08.2019 13:00:00 19,9 8,9 21,3 24,6 18,3 18,9 5 3 16 9 SSE 1028,6 10 49 0,0
21.08.2019 12:00:00 19,6 9,2 26,2 22,8 17,6 18,9 4 2 14 8 - 1029,0 10 60 0,0
21.08.2019 11:00:00 18,5 11,2 22,7 20,1 17,2 18,9 4 2 11 6 - 1029,2 10 60 0,0
21.08.2019 10:00:00 15,9 10,8 19,1 17,4 17,0 18,9 4 2 9 5 - 1029,4 10 60 0,0
21.08.2019 09:00:00 14,4 10,4 15,2 15,2 17,0 18,8 5 3 9 5 ESE 1029,4 35 51 0,0
21.08.2019 08:00:00 10,6 9,4 10,6 14,0 17,2 18,8 5 3 9 5 SE 1029,3 35 19 0,0
21.08.2019 07:00:00 9,7 9,2 8,4 13,8 17,5 18,8 4 2 11 6 ENE 1029,0 10 0 0,0
21.08.2019 06:00:00 9,6 9,3 7,3 14,0 17,8 18,8 2 1 11 6 - 1028,4 10 0 0,0
21.08.2019 05:00:00 9,6 9,1 7,4 14,5 18,1 18,8 4 2 11 6 ENE 1028,2 10 0 0,0
21.08.2019 04:00:00 10,4 9,6 8,5 15,1 18,4 18,8 7 4 11 6 E 1028,1 45 0 0,0
21.08.2019 03:00:00 11,3 10,5 9,2 15,7 18,7 18,8 6 4 9 5 ESE 1027,8 45 0 0,0
21.08.2019 02:00:00 11,0 9,7 10,7 16,0 19,1 18,8 5 3 9 5 ESE 1027,7 50 0 0,0
21.08.2019 01:00:00 12,0 10,4 10,6 16,6 19,4 18,8 8 4 9 5 E 1027,3 50 0 0,0
21.08.2019 00:00:00 12,2 10,5 10,0 17,3 19,8 18,9 2 1 8 4 SSW 1026,9 50 0 0,0
20.08.2019 23:00:00 14,1 10,5 11,9 18,2 20,1 18,9 5 3 15 8 E 1026,4 50 0 0,0
20.08.2019 22:00:00 16,4 10,1 14,0 19,3 20,4 18,9 13 7 22 12 N 1025,7 50 0 0,0
20.08.2019 21:00:00 18,7 8,4 16,1 20,7 20,5 18,9 9 5 18 10 WNW 1024,9 50 11 0,0
20.08.2019 20:00:00 20,6 8,3 20,2 22,2 20,5 18,9 15 8 26 14 W 1024,1 10 46 0,0
20.08.2019 19:00:00 21,4 7,4 22,4 23,3 20,3 18,9 16 9 32 17 W 1023,8 10 44 0,0
20.08.2019 18:00:00 21,6 8,3 23,1 24,1 20,0 18,9 16 8 24 13 WSW 1023,5 50 30 0,0
20.08.2019 17:00:00 22,0 8,7 24,6 24,6 19,6 18,9 14 7 25 14 W 1023,6 50 59 0,0
20.08.2019 16:00:00 21,0 7,9 24,7 23,8 19,1 18,9 15 8 24 13 WNW 1023,3 10 50 0,0
20.08.2019 15:00:00 20,9 8,7 24,1 22,9 18,6 18,9 13 7 22 12 WSW 1023,4 10 17 0,0
20.08.2019 14:00:00 19,5 8,6 22,7 22,4 18,2 18,9 5 3 18 10 - 1023,3 10 9 0,0
20.08.2019 13:00:00 19,2 10,5 21,5 21,2 17,7 18,9 7 4 16 9 SW 1023,5 50 0 0,0
20.08.2019 12:00:00 18,0 10,3 19,4 20,2 17,3 18,9 5 3 15 8 S 1023,2 10 5 0,0
20.08.2019 11:00:00 17,2 10,6 19,4 19,0 16,9 18,9 5 3 15 8 SSW 1023,3 10 57 0,0
20.08.2019 10:00:00 15,9 10,5 17,8 17,2 16,7 18,9 8 4 13 7 S 1023,2 10 60 0,0
20.08.2019 09:00:00 14,4 11,1 15,6 14,9 16,7 18,9 9 5 8 4 SE 1022,8 10 60 0,0
20.08.2019 08:00:00 12,3 10,4 11,7 13,3 16,9 18,9 2 1 9 5 - 1022,8 10 42 0,0
20.08.2019 07:00:00 10,7 9,9 8,9 13,0 17,3 18,9 5 3 9 5 E 1022,3 40 0 0,0
20.08.2019 06:00:00 10,9 9,9 8,4 13,5 17,6 18,9 2 1 11 6 - 1021,8 10 0 0,0
20.08.2019 05:00:00 11,6 10,4 10,0 14,0 17,9 18,9 4 2 11 6 ENE 1021,7 10 0 0,0
20.08.2019 04:00:00 12,7 10,5 10,3 14,7 18,3 18,9 8 4 13 7 SSE 1021,3 60 0 0,0
20.08.2019 03:00:00 13,0 11,4 11,5 15,6 18,5 18,9 8 4 9 5 ENE 1021,2 10 0 0,0
20.08.2019 02:00:00 15,1 10,9 14,2 16,1 18,8 18,9 8 4 8 4 SE 1020,9 10 0 0,0
20.08.2019 01:00:00 14,2 11,1 13,2 16,0 19,2 18,9 2 1 9 5 - 1020,8 10 0 0,0
20.08.2019 00:00:00 14,6 10,2 12,5 16,3 19,6 18,9 8 4 9 5 S 1020,3 10 0 0,0
19.08.2019 23:00:00 14,2 10,9 12,2 17,2 20,0 18,9 5 3 5 3 NE 1019,7 10 0 0,0
19.08.2019 22:00:00 16,4 10,5 13,7 18,3 20,3 18,9 4 2 16 9 - 1019,1 10 0 0,0
19.08.2019 21:00:00 18,8 9,5 16,2 19,7 20,5 19,0 11 6 16 9 WSW 1018,4 10 24 0,0
19.08.2019 20:00:00 21,1 9,7 20,4 21,2 20,6 19,0 13 7 23 13 WSW 1017,8 10 19 0,0
19.08.2019 19:00:00 22,2 8,6 22,7 22,7 20,6 19,0 15 8 26 14 WSW 1017,8 10 24 0,0
19.08.2019 18:00:00 22,4 8,9 23,7 23,3 20,5 19,0 15 8 25 14 WSW 1017,7 10 19 0,0
19.08.2019 17:00:00 22,6 8,7 23,8 24,4 20,2 19,0 26 14 42 23 WSW 1017,5 10 27 0,0
19.08.2019 16:00:00 22,3 8,3 23,5 24,7 19,8 19,0 19 10 31 17 WNW 1017,6 60 31 0,0
19.08.2019 15:00:00 22,7 9,0 26,5 24,6 19,2 19,0 18 10 28 15 W 1017,6 10 41 0,0
19.08.2019 14:00:00 21,5 10,5 23,4 23,8 18,7 19,0 16 9 29 16 W 1017,2 10 27 0,0
19.08.2019 13:00:00 21,0 9,9 23,4 23,5 18,0 19,0 18 10 29 16 SW 1017,0 60 49 0,0
19.08.2019 12:00:00 19,1 10,9 20,1 21,9 17,5 19,0 18 10 25 14 W 1016,8 10 48 0,0
19.08.2019 11:00:00 19,0 11,4 21,8 20,0 17,0 19,1 18 10 33 18 WSW 1016,6 10 57 0,0
19.08.2019 10:00:00 17,9 11,8 20,3 18,0 16,7 19,1 12 6 22 12 WSW 1016,3 55 60 0,0
19.08.2019 09:00:00 15,9 11,4 17,5 15,5 16,6 19,1 10 6 16 9 SSW 1016,2 55 60 0,0
19.08.2019 08:00:00 13,6 11,9 13,7 13,7 16,8 19,1 6 3 9 5 SSE 1015,9 50 47 0,0

tt = temperature
td = dewpoint
tt 5cm = temperature 5cm
tt -5cm = temperature -5cm
tt -20cm = temperature -20cm
tt -100cm = temperature -100cm
ff = wind speed
fx = gusts
dd = wind direction
ppp = reduced air pressure
vv = visibility
sd = sunshine duration
rr = precipitation

Next stations